Location: Biltmore Gardens
(41.6070°N, 83.4666°W)
Time: 14:30:43
(UTC+00:00)

Meteor 2-6 Rocket - Pass Details

Date: 14 July 2020
Orbit: 804 x 916 km, 81.3° (Epoch: 04 August)

Event Time Altitude Azimuth Distance (km) Brightness Sun altitude
Rises 05:05:03 0° 350° (N) 3,344 8.7 -26.3°
Reaches altitude 10° 05:07:28 10° 351° (N) 2,401 7.6 -26.3°
Maximum altitude 05:12:53 85° 81° (E) 813 4.0 -26.5°
Enters shadow 05:13:04 82° 133° (SE) 817 3.9 -26.5°
